Year,Month,Day,Hour,Minute,Value (Times are PST for temperature in C)
2010,06,30,00,00,10.20
2010,06,30,00,01,10.20
2010,06,30,00,02,10.20
2010,06,30,00,03,10.20
2010,06,30,00,04,10.20
2010,06,30,00,05,10.30
2010,06,30,00,06,10.30
2010,06,30,00,07,10.40
2010,06,30,00,08,10.40
2010,06,30,00,09,10.40
2010,06,30,00,10,10.40
2010,06,30,00,11,10.40
2010,06,30,00,12,10.40
2010,06,30,00,13,10.40
2010,06,30,00,14,10.40
2010,06,30,00,15,10.40
2010,06,30,00,16,10.40
2010,06,30,00,17,10.40
2010,06,30,00,18,10.40
2010,06,30,00,19,10.40
2010,06,30,00,20,10.40
2010,06,30,00,21,10.40
2010,06,30,00,22,10.40
2010,06,30,00,23,10.40
2010,06,30,00,24,10.40
2010,06,30,00,25,10.40
2010,06,30,00,26,10.40
2010,06,30,00,27,10.40
2010,06,30,00,28,10.40
2010,06,30,00,29,10.50
2010,06,30,00,30,10.60
2010,06,30,00,31,10.60
2010,06,30,00,32,10.60
2010,06,30,00,33,10.60
2010,06,30,00,34,10.60
2010,06,30,00,35,10.60
2010,06,30,00,36,10.60
2010,06,30,00,37,10.60
2010,06,30,00,38,10.60
2010,06,30,00,39,10.60
2010,06,30,00,40,10.60
2010,06,30,00,41,10.60
2010,06,30,00,42,10.50
2010,06,30,00,43,10.40
2010,06,30,00,44,10.40
2010,06,30,00,45,10.50
2010,06,30,00,46,10.60
2010,06,30,00,47,10.60
2010,06,30,00,48,10.60
2010,06,30,00,49,10.60
2010,06,30,00,50,10.60
2010,06,30,00,51,10.60
2010,06,30,00,52,10.60
2010,06,30,00,53,10.60
2010,06,30,00,54,10.60
2010,06,30,00,55,10.60
2010,06,30,00,56,10.50
2010,06,30,00,57,10.50
2010,06,30,00,58,10.50
2010,06,30,00,59,10.50
2010,06,30,01,00,10.40
2010,06,30,01,01,10.40
2010,06,30,01,02,10.40
2010,06,30,01,03,10.40
2010,06,30,01,04,10.40
2010,06,30,01,05,10.40
2010,06,30,01,06,10.40
2010,06,30,01,07,10.40
2010,06,30,01,08,10.40
2010,06,30,01,09,10.40
2010,06,30,01,10,10.40
2010,06,30,01,11,10.40
2010,06,30,01,12,10.30
2010,06,30,01,13,10.30
2010,06,30,01,14,10.30
2010,06,30,01,15,10.30
2010,06,30,01,16,10.40
2010,06,30,01,17,10.40
2010,06,30,01,18,10.40
2010,06,30,01,19,10.40
2010,06,30,01,20,10.40
2010,06,30,01,21,10.40
2010,06,30,01,22,10.40
2010,06,30,01,23,10.40
2010,06,30,01,24,10.40
2010,06,30,01,25,10.40
2010,06,30,01,26,10.40
2010,06,30,01,27,10.40
2010,06,30,01,28,10.40
2010,06,30,01,29,10.40
2010,06,30,01,30,10.40
2010,06,30,01,31,10.30
2010,06,30,01,32,10.30
2010,06,30,01,33,10.30
2010,06,30,01,34,10.30
2010,06,30,01,35,10.30
2010,06,30,01,36,10.40
2010,06,30,01,37,10.40
2010,06,30,01,38,10.40
2010,06,30,01,39,10.30
2010,06,30,01,40,10.30
2010,06,30,01,41,10.30
2010,06,30,01,42,10.30
2010,06,30,01,43,10.30
2010,06,30,01,44,10.30
2010,06,30,01,45,10.20
2010,06,30,01,46,10.20
2010,06,30,01,47,10.20
2010,06,30,01,48,10.30
2010,06,30,01,49,10.30
2010,06,30,01,50,10.20
2010,06,30,01,51,10.20
2010,06,30,01,52,10.20
2010,06,30,01,53,10.30
2010,06,30,01,54,10.30
2010,06,30,01,55,10.30
2010,06,30,01,56,10.30
2010,06,30,01,57,10.30
2010,06,30,01,58,10.30
2010,06,30,01,59,10.30
2010,06,30,02,00,10.30
2010,06,30,02,01,10.30
2010,06,30,02,02,10.30
2010,06,30,02,03,10.20
2010,06,30,02,04,10.10
2010,06,30,02,05,10.10
2010,06,30,02,06,10.00
2010,06,30,02,07,9.90
2010,06,30,02,08,9.90
2010,06,30,02,09,9.90
2010,06,30,02,10,9.90
2010,06,30,02,11,9.90
2010,06,30,02,12,9.90
2010,06,30,02,13,9.90
2010,06,30,02,14,9.80
2010,06,30,02,15,9.80
2010,06,30,02,16,9.80
2010,06,30,02,17,9.80
2010,06,30,02,18,9.80
2010,06,30,02,19,9.80
2010,06,30,02,20,9.80
2010,06,30,02,21,9.80
2010,06,30,02,22,9.80
2010,06,30,02,23,9.80
2010,06,30,02,24,9.70
2010,06,30,02,25,9.80
2010,06,30,02,26,9.80
2010,06,30,02,27,9.80
2010,06,30,02,28,9.80
2010,06,30,02,29,9.70
2010,06,30,02,30,9.70
2010,06,30,02,31,9.70
2010,06,30,02,32,9.60
2010,06,30,02,33,9.50
2010,06,30,02,34,9.40
2010,06,30,02,35,9.30
2010,06,30,02,36,9.20
2010,06,30,02,37,9.20
2010,06,30,02,38,9.20
2010,06,30,02,39,9.20
2010,06,30,02,40,9.40
2010,06,30,02,41,9.50
2010,06,30,02,42,9.60
2010,06,30,02,43,9.70
2010,06,30,02,44,9.70
2010,06,30,02,45,9.80
2010,06,30,02,46,9.80
2010,06,30,02,47,9.80
2010,06,30,02,48,9.70
2010,06,30,02,49,9.70
2010,06,30,02,50,9.70
2010,06,30,02,51,9.70
2010,06,30,02,52,9.70
2010,06,30,02,53,9.70
2010,06,30,02,54,9.80
2010,06,30,02,55,9.90
2010,06,30,02,56,9.90
2010,06,30,02,57,9.90
2010,06,30,02,58,9.90
2010,06,30,02,59,9.80
2010,06,30,03,00,9.60
2010,06,30,03,01,9.40
2010,06,30,03,02,9.20
2010,06,30,03,03,9.00
2010,06,30,03,04,8.90
2010,06,30,03,05,8.90
2010,06,30,03,06,8.80
2010,06,30,03,07,8.70
2010,06,30,03,08,8.50
2010,06,30,03,09,8.40
2010,06,30,03,10,8.20
2010,06,30,03,11,8.10
2010,06,30,03,12,8.00
2010,06,30,03,13,8.00
2010,06,30,03,14,7.90
2010,06,30,03,15,7.80
2010,06,30,03,16,7.70
2010,06,30,03,17,7.60
2010,06,30,03,18,7.60
2010,06,30,03,19,7.60
2010,06,30,03,20,7.60
2010,06,30,03,21,7.60
2010,06,30,03,22,7.60
2010,06,30,03,23,7.60
2010,06,30,03,24,7.60
2010,06,30,03,25,7.60
2010,06,30,03,26,7.50
2010,06,30,03,27,7.50
2010,06,30,03,28,7.50
2010,06,30,03,29,7.60
2010,06,30,03,30,7.50
2010,06,30,03,31,7.40
2010,06,30,03,32,7.40
2010,06,30,03,33,7.50
2010,06,30,03,34,7.50
2010,06,30,03,35,7.40
2010,06,30,03,36,7.40
2010,06,30,03,37,7.30
2010,06,30,03,38,7.30
2010,06,30,03,39,7.30
2010,06,30,03,40,7.30
2010,06,30,03,41,7.30
2010,06,30,03,42,7.20
2010,06,30,03,43,7.20
2010,06,30,03,44,7.20
2010,06,30,03,45,7.20
2010,06,30,03,46,7.20
2010,06,30,03,47,7.30
2010,06,30,03,48,7.40
2010,06,30,03,49,7.60
2010,06,30,03,50,7.80
2010,06,30,03,51,7.90
2010,06,30,03,52,8.00
2010,06,30,03,53,8.10
2010,06,30,03,54,8.20
2010,06,30,03,55,8.20
2010,06,30,03,56,8.30
2010,06,30,03,57,8.30
2010,06,30,03,58,8.40
2010,06,30,03,59,8.30
2010,06,30,04,00,8.30
2010,06,30,04,01,8.20
2010,06,30,04,02,8.20
2010,06,30,04,03,8.20
2010,06,30,04,04,8.30
2010,06,30,04,05,8.30
2010,06,30,04,06,8.40
2010,06,30,04,07,8.50
2010,06,30,04,08,8.50
2010,06,30,04,09,8.50
2010,06,30,04,10,8.40
2010,06,30,04,11,8.30
2010,06,30,04,12,8.20
2010,06,30,04,13,8.00
2010,06,30,04,14,7.90
2010,06,30,04,15,7.80
2010,06,30,04,16,7.70
2010,06,30,04,17,7.60
2010,06,30,04,18,7.60
2010,06,30,04,19,7.50
2010,06,30,04,20,7.40
2010,06,30,04,21,7.40
2010,06,30,04,22,7.30
2010,06,30,04,23,7.30
2010,06,30,04,24,7.30
2010,06,30,04,25,7.30
2010,06,30,04,26,7.30
2010,06,30,04,27,7.30
2010,06,30,04,28,7.40
2010,06,30,04,29,7.50
2010,06,30,04,30,7.60
2010,06,30,04,31,7.70
2010,06,30,04,32,7.80
2010,06,30,04,33,7.90
2010,06,30,04,34,8.10
2010,06,30,04,35,8.30
2010,06,30,04,36,8.40
2010,06,30,04,37,8.40
2010,06,30,04,38,8.40
2010,06,30,04,39,8.30
2010,06,30,04,40,8.30
2010,06,30,04,41,8.20
2010,06,30,04,42,8.00
2010,06,30,04,43,8.00
2010,06,30,04,44,7.90
2010,06,30,04,45,7.80
2010,06,30,04,46,7.80
2010,06,30,04,47,7.70
2010,06,30,04,48,7.60
2010,06,30,04,49,7.50
2010,06,30,04,50,7.40
2010,06,30,04,51,7.30
2010,06,30,04,52,7.30
2010,06,30,04,53,7.30
2010,06,30,04,54,7.30
2010,06,30,04,55,7.20
2010,06,30,04,56,7.10
2010,06,30,04,57,7.10
2010,06,30,04,58,7.00
2010,06,30,04,59,7.00
2010,06,30,05,00,6.80
2010,06,30,05,01,6.80
2010,06,30,05,02,6.80
2010,06,30,05,03,6.80
2010,06,30,05,04,7.00
2010,06,30,05,05,7.10
2010,06,30,05,06,7.20
2010,06,30,05,07,7.30
2010,06,30,05,08,7.30
2010,06,30,05,09,7.40
2010,06,30,05,10,7.40
2010,06,30,05,11,7.50
2010,06,30,05,12,7.60
2010,06,30,05,13,7.70
2010,06,30,05,14,7.80
2010,06,30,05,15,7.80
2010,06,30,05,16,7.80
2010,06,30,05,17,7.90
2010,06,30,05,18,8.00
2010,06,30,05,19,8.10
2010,06,30,05,20,8.30
2010,06,30,05,21,8.40
2010,06,30,05,22,8.50
2010,06,30,05,23,8.60
2010,06,30,05,24,8.60
2010,06,30,05,25,8.50
2010,06,30,05,26,8.40
2010,06,30,05,27,8.30
2010,06,30,05,28,8.30
2010,06,30,05,29,8.20
2010,06,30,05,30,8.20
2010,06,30,05,31,8.20
2010,06,30,05,32,8.20
2010,06,30,05,33,8.10
2010,06,30,05,34,8.10
2010,06,30,05,35,8.10
2010,06,30,05,36,8.00
2010,06,30,05,37,8.00
2010,06,30,05,38,7.90
2010,06,30,05,39,7.90
2010,06,30,05,40,7.90
2010,06,30,05,41,7.80
2010,06,30,05,42,7.80
2010,06,30,05,43,7.80
2010,06,30,05,44,7.80
2010,06,30,05,45,7.80
2010,06,30,05,46,7.80
2010,06,30,05,47,7.80
2010,06,30,05,48,7.70
2010,06,30,05,49,7.70
2010,06,30,05,50,7.70
2010,06,30,05,51,7.60
2010,06,30,05,52,7.60
2010,06,30,05,53,7.50
2010,06,30,05,54,7.50
2010,06,30,05,55,7.40
2010,06,30,05,56,7.40
2010,06,30,05,57,7.30
2010,06,30,05,58,7.30
2010,06,30,05,59,7.30
2010,06,30,06,00,7.30
2010,06,30,06,01,7.30
2010,06,30,06,02,7.30
2010,06,30,06,03,7.30
2010,06,30,06,04,7.30
2010,06,30,06,05,7.40
2010,06,30,06,06,7.40
2010,06,30,06,07,7.50
2010,06,30,06,08,7.50
2010,06,30,06,09,7.50
2010,06,30,06,10,7.60
2010,06,30,06,11,7.70
2010,06,30,06,12,7.80
2010,06,30,06,13,7.80
2010,06,30,06,14,7.90
2010,06,30,06,15,7.90
2010,06,30,06,16,8.00
2010,06,30,06,17,8.00
2010,06,30,06,18,8.00
2010,06,30,06,19,8.10
2010,06,30,06,20,8.10
2010,06,30,06,21,8.10
2010,06,30,06,22,8.10
2010,06,30,06,23,8.20
2010,06,30,06,24,8.20
2010,06,30,06,25,8.20
2010,06,30,06,26,8.20
2010,06,30,06,27,8.20
2010,06,30,06,28,8.20
2010,06,30,06,29,8.30
2010,06,30,06,30,8.30
2010,06,30,06,31,8.40
2010,06,30,06,32,8.40
2010,06,30,06,33,8.50
2010,06,30,06,34,8.60
2010,06,30,06,35,8.70
2010,06,30,06,36,8.80
2010,06,30,06,37,8.90
2010,06,30,06,38,9.10
2010,06,30,06,39,9.20
2010,06,30,06,40,9.20
2010,06,30,06,41,9.30
2010,06,30,06,42,9.40
2010,06,30,06,43,9.50
2010,06,30,06,44,9.60
2010,06,30,06,45,9.70
2010,06,30,06,46,9.70
2010,06,30,06,47,9.80
2010,06,30,06,48,9.90
2010,06,30,06,49,9.90
2010,06,30,06,50,10.00
2010,06,30,06,51,10.10
2010,06,30,06,52,10.30
2010,06,30,06,53,10.40
2010,06,30,06,54,10.50
2010,06,30,06,55,10.60
2010,06,30,06,56,10.70
2010,06,30,06,57,10.80
2010,06,30,06,58,10.90
2010,06,30,06,59,11.00
2010,06,30,07,00,11.10
2010,06,30,07,01,11.20
2010,06,30,07,02,11.30
2010,06,30,07,03,11.40
2010,06,30,07,04,11.40
2010,06,30,07,05,11.40
2010,06,30,07,06,11.60
2010,06,30,07,07,11.60
2010,06,30,07,08,11.60
2010,06,30,07,09,11.70
2010,06,30,07,10,11.80
2010,06,30,07,11,11.80
2010,06,30,07,12,11.80
2010,06,30,07,13,11.90
2010,06,30,07,14,12.00
2010,06,30,07,15,12.10
2010,06,30,07,16,12.10
2010,06,30,07,17,12.20
2010,06,30,07,18,12.20
2010,06,30,07,19,12.20
2010,06,30,07,20,12.20
2010,06,30,07,21,12.20
2010,06,30,07,22,12.30
2010,06,30,07,23,12.30
2010,06,30,07,24,12.30
2010,06,30,07,25,12.30
2010,06,30,07,26,12.30
2010,06,30,07,27,12.30
2010,06,30,07,28,12.40
2010,06,30,07,29,12.40
2010,06,30,07,30,12.50
2010,06,30,07,31,12.60
2010,06,30,07,32,12.70
2010,06,30,07,33,12.70
2010,06,30,07,34,12.80
2010,06,30,07,35,12.80
2010,06,30,07,36,12.80
2010,06,30,07,37,12.80
2010,06,30,07,38,12.80
2010,06,30,07,39,12.80
2010,06,30,07,40,12.80
2010,06,30,07,41,12.90
2010,06,30,07,42,12.90
2010,06,30,07,43,12.90
2010,06,30,07,44,12.90
2010,06,30,07,45,13.00
2010,06,30,07,46,13.00
2010,06,30,07,47,13.00
2010,06,30,07,48,13.00
2010,06,30,07,49,13.00
2010,06,30,07,50,13.00
2010,06,30,07,51,13.00
2010,06,30,07,52,13.00
2010,06,30,07,53,13.00
2010,06,30,07,54,13.00
2010,06,30,07,55,13.10
2010,06,30,07,56,13.20
2010,06,30,07,57,13.30
2010,06,30,07,58,13.40
2010,06,30,07,59,13.50
2010,06,30,08,00,13.60
2010,06,30,08,01,13.70
2010,06,30,08,02,13.70
2010,06,30,08,03,13.70
2010,06,30,08,04,13.70
2010,06,30,08,05,13.70
2010,06,30,08,06,13.70
2010,06,30,08,07,13.70
2010,06,30,08,08,13.70
2010,06,30,08,09,13.70
2010,06,30,08,10,13.70
2010,06,30,08,11,13.70
2010,06,30,08,12,13.70
2010,06,30,08,13,13.60
2010,06,30,08,14,13.60
2010,06,30,08,15,13.70
2010,06,30,08,16,13.70
2010,06,30,08,17,13.70
2010,06,30,08,18,13.70
2010,06,30,08,19,13.70
2010,06,30,08,20,13.70
2010,06,30,08,21,13.70
2010,06,30,08,22,13.70
2010,06,30,08,23,13.70
2010,06,30,08,24,13.70
2010,06,30,08,25,13.70
2010,06,30,08,26,13.70
2010,06,30,08,27,13.60
2010,06,30,08,28,13.60
2010,06,30,08,29,13.60
2010,06,30,08,30,13.50
2010,06,30,08,31,13.50
2010,06,30,08,32,13.50
2010,06,30,08,33,13.50
2010,06,30,08,34,13.50
2010,06,30,08,35,13.40
2010,06,30,08,36,13.40
2010,06,30,08,37,13.40
2010,06,30,08,38,13.40
2010,06,30,08,39,13.50
2010,06,30,08,40,13.50
2010,06,30,08,41,13.60
2010,06,30,08,42,13.70
2010,06,30,08,43,13.70
2010,06,30,08,44,13.90
2010,06,30,08,45,13.90
2010,06,30,08,46,14.00
2010,06,30,08,47,14.00
2010,06,30,08,48,14.00
2010,06,30,08,49,14.00
2010,06,30,08,50,14.00
2010,06,30,08,51,14.00
2010,06,30,08,52,14.00
2010,06,30,08,53,14.00
2010,06,30,08,54,14.00
2010,06,30,08,55,14.00
2010,06,30,08,56,14.10
2010,06,30,08,57,14.10
2010,06,30,08,58,14.10
2010,06,30,08,59,14.10
2010,06,30,09,00,14.10
2010,06,30,09,01,14.00
2010,06,30,09,02,14.00
2010,06,30,09,03,14.10
2010,06,30,09,04,14.10
2010,06,30,09,05,14.20
2010,06,30,09,06,14.20
2010,06,30,09,07,14.20
2010,06,30,09,08,14.20
2010,06,30,09,09,14.20
2010,06,30,09,10,14.20
2010,06,30,09,11,14.20
2010,06,30,09,12,14.20
2010,06,30,09,13,14.20
2010,06,30,09,14,14.10
2010,06,30,09,15,14.10
2010,06,30,09,16,14.10
2010,06,30,09,17,14.10
2010,06,30,09,18,14.20
2010,06,30,09,19,14.20
2010,06,30,09,20,14.30
2010,06,30,09,21,14.40
2010,06,30,09,22,14.50
2010,06,30,09,23,14.50
2010,06,30,09,24,14.60
2010,06,30,09,25,14.50
2010,06,30,09,26,14.60
2010,06,30,09,27,14.60
2010,06,30,09,28,14.60
2010,06,30,09,29,14.50
2010,06,30,09,30,14.40
2010,06,30,09,31,14.30
2010,06,30,09,32,14.30
2010,06,30,09,33,14.30
2010,06,30,09,34,14.40
2010,06,30,09,35,14.50
2010,06,30,09,36,14.60
2010,06,30,09,37,14.60
2010,06,30,09,38,14.60
2010,06,30,09,39,14.60
2010,06,30,09,40,14.60
2010,06,30,09,41,14.60
2010,06,30,09,42,14.50
2010,06,30,09,43,14.60
2010,06,30,09,44,14.60
2010,06,30,09,45,14.60
2010,06,30,09,46,14.60
2010,06,30,09,47,14.50
2010,06,30,09,48,14.50
2010,06,30,09,49,14.50
2010,06,30,09,50,14.60
2010,06,30,09,51,14.60
2010,06,30,09,52,14.70
2010,06,30,09,53,14.70
2010,06,30,09,54,14.70
2010,06,30,09,55,14.80
2010,06,30,09,56,14.80
2010,06,30,09,57,14.80
2010,06,30,09,58,14.80
2010,06,30,09,59,14.70
2010,06,30,10,00,14.80
2010,06,30,10,01,14.80
2010,06,30,10,02,14.80
2010,06,30,10,03,14.80
2010,06,30,10,04,14.80
2010,06,30,10,05,14.80
2010,06,30,10,06,14.80
2010,06,30,10,07,14.90
2010,06,30,10,08,14.90
2010,06,30,10,09,14.90
2010,06,30,10,10,15.00
2010,06,30,10,11,15.00
2010,06,30,10,12,15.00
2010,06,30,10,13,15.00
2010,06,30,10,14,14.90
2010,06,30,10,15,14.90
2010,06,30,10,16,14.90
2010,06,30,10,17,14.90
2010,06,30,10,18,15.00
2010,06,30,10,19,15.20
2010,06,30,10,20,15.20
2010,06,30,10,21,15.30
2010,06,30,10,22,15.30
2010,06,30,10,23,15.30
2010,06,30,10,24,15.30
2010,06,30,10,25,15.30
2010,06,30,10,26,15.30
2010,06,30,10,27,15.30
2010,06,30,10,28,15.20
2010,06,30,10,29,15.10
2010,06,30,10,30,15.10
2010,06,30,10,31,15.10
2010,06,30,10,32,15.10
2010,06,30,10,33,15.10
2010,06,30,10,34,15.00
2010,06,30,10,35,15.10
2010,06,30,10,36,15.10
2010,06,30,10,37,15.20
2010,06,30,10,38,15.20
2010,06,30,10,39,15.30
2010,06,30,10,40,15.30
2010,06,30,10,41,15.30
2010,06,30,10,42,15.30
2010,06,30,10,43,15.20
2010,06,30,10,44,15.20
2010,06,30,10,45,15.20
2010,06,30,10,46,15.20
2010,06,30,10,47,15.30
2010,06,30,10,48,15.30
2010,06,30,10,49,15.40
2010,06,30,10,50,15.40
2010,06,30,10,51,15.40
2010,06,30,10,52,15.40
2010,06,30,10,53,15.30
2010,06,30,10,54,15.30
2010,06,30,10,55,15.30
2010,06,30,10,56,15.30
2010,06,30,10,57,15.30
2010,06,30,10,58,15.30
2010,06,30,10,59,15.30
2010,06,30,11,00,15.30
2010,06,30,11,01,15.40
2010,06,30,11,02,15.50
2010,06,30,11,03,15.70
2010,06,30,11,04,15.80
2010,06,30,11,05,15.90
2010,06,30,11,06,15.90
2010,06,30,11,07,15.90
2010,06,30,11,08,15.80
2010,06,30,11,09,15.90
2010,06,30,11,10,16.00
2010,06,30,11,11,16.10
2010,06,30,11,12,16.20
2010,06,30,11,13,16.30
2010,06,30,11,14,16.40
2010,06,30,11,15,16.40
2010,06,30,11,16,16.30
2010,06,30,11,17,16.30
2010,06,30,11,18,16.20
2010,06,30,11,19,16.10
2010,06,30,11,20,16.00
2010,06,30,11,21,15.80
2010,06,30,11,22,15.80
2010,06,30,11,23,15.80
2010,06,30,11,24,15.80
2010,06,30,11,25,15.80
2010,06,30,11,26,15.90
2010,06,30,11,27,16.10
2010,06,30,11,28,15.90
2010,06,30,11,29,15.90
2010,06,30,11,30,15.90
2010,06,30,11,31,15.90
2010,06,30,11,32,15.90
2010,06,30,11,33,15.90
2010,06,30,11,34,16.10
2010,06,30,11,35,16.10
2010,06,30,11,36,16.10
2010,06,30,11,37,16.10
2010,06,30,11,38,16.10
2010,06,30,11,39,16.10
2010,06,30,11,40,16.20
2010,06,30,11,41,16.30
2010,06,30,11,42,16.40
2010,06,30,11,43,16.60
2010,06,30,11,44,16.80
2010,06,30,11,45,17.00
2010,06,30,11,46,17.10
2010,06,30,11,47,17.20
2010,06,30,11,48,17.30
2010,06,30,11,49,17.30
2010,06,30,11,50,17.30
2010,06,30,11,51,17.30
2010,06,30,11,52,17.20
2010,06,30,11,53,17.20
2010,06,30,11,54,17.20
2010,06,30,11,55,17.10
2010,06,30,11,56,17.10
2010,06,30,11,57,17.20
2010,06,30,11,58,17.30
2010,06,30,11,59,17.40
2010,06,30,12,00,17.40
2010,06,30,12,01,17.40
2010,06,30,12,02,17.40
2010,06,30,12,03,17.30
2010,06,30,12,04,17.30
2010,06,30,12,05,17.30
2010,06,30,12,06,17.30
2010,06,30,12,07,17.30
2010,06,30,12,08,17.30
2010,06,30,12,09,17.30
2010,06,30,12,10,17.40
2010,06,30,12,11,17.40
2010,06,30,12,12,17.40
2010,06,30,12,13,17.50
2010,06,30,12,14,17.60
2010,06,30,12,15,17.60
2010,06,30,12,16,17.70
2010,06,30,12,17,17.70
2010,06,30,12,18,17.80
2010,06,30,12,19,17.90
2010,06,30,12,20,17.90
2010,06,30,12,21,17.90
2010,06,30,12,22,17.90
2010,06,30,12,23,17.90
2010,06,30,12,24,17.90
2010,06,30,12,25,17.90
2010,06,30,12,26,17.80
2010,06,30,12,27,17.70
2010,06,30,12,28,17.70
2010,06,30,12,29,17.60
2010,06,30,12,30,17.60
2010,06,30,12,31,17.50
2010,06,30,12,32,17.50
2010,06,30,12,33,17.60
2010,06,30,12,34,17.70
2010,06,30,12,35,17.70
2010,06,30,12,36,17.70
2010,06,30,12,37,17.70
2010,06,30,12,38,17.70
2010,06,30,12,39,17.70
2010,06,30,12,40,17.70
2010,06,30,12,41,17.70
2010,06,30,12,42,17.80
2010,06,30,12,43,17.90
2010,06,30,12,44,17.90
2010,06,30,12,45,17.90
2010,06,30,12,46,17.90
2010,06,30,12,47,17.90
2010,06,30,12,48,18.10
2010,06,30,12,49,18.30
2010,06,30,12,50,18.40
2010,06,30,12,51,18.50
2010,06,30,12,52,18.50
2010,06,30,12,53,18.40
2010,06,30,12,54,18.20
2010,06,30,12,55,18.40
2010,06,30,12,56,18.50
2010,06,30,12,57,18.60
2010,06,30,12,58,18.60
2010,06,30,12,59,18.70
2010,06,30,13,00,18.80
2010,06,30,13,01,18.90
2010,06,30,13,02,18.80
2010,06,30,13,03,18.70
2010,06,30,13,04,18.70
2010,06,30,13,05,18.80
2010,06,30,13,06,18.80
2010,06,30,13,07,18.70
2010,06,30,13,08,18.70
2010,06,30,13,09,18.60
2010,06,30,13,10,18.50
2010,06,30,13,11,18.30
2010,06,30,13,12,18.20
2010,06,30,13,13,18.00
2010,06,30,13,14,17.90
2010,06,30,13,15,17.80
2010,06,30,13,16,17.70
2010,06,30,13,17,17.80
2010,06,30,13,18,17.90
2010,06,30,13,19,18.00
2010,06,30,13,20,18.20
2010,06,30,13,21,18.50
2010,06,30,13,22,18.70
2010,06,30,13,23,18.70
2010,06,30,13,24,18.60
2010,06,30,13,25,18.40
2010,06,30,13,26,18.30
2010,06,30,13,27,18.30
2010,06,30,13,28,18.40
2010,06,30,13,29,18.30
2010,06,30,13,30,18.20
2010,06,30,13,31,18.20
2010,06,30,13,32,18.10
2010,06,30,13,33,18.10
2010,06,30,13,34,18.10
2010,06,30,13,35,18.20
2010,06,30,13,36,18.20
2010,06,30,13,37,18.30
2010,06,30,13,38,18.40
2010,06,30,13,39,18.20
2010,06,30,13,40,18.20
2010,06,30,13,41,18.20
2010,06,30,13,42,18.20
2010,06,30,13,43,18.20
2010,06,30,13,44,18.20
2010,06,30,13,45,18.20
2010,06,30,13,46,18.10
2010,06,30,13,47,17.90
2010,06,30,13,48,17.80
2010,06,30,13,49,17.70
2010,06,30,13,50,17.70
2010,06,30,13,51,17.70
2010,06,30,13,52,17.70
2010,06,30,13,53,17.60
2010,06,30,13,54,17.50
2010,06,30,13,55,17.40
2010,06,30,13,56,17.30
2010,06,30,13,57,17.30
2010,06,30,13,58,17.30
2010,06,30,13,59,17.30
2010,06,30,14,00,17.30
2010,06,30,14,01,17.30
2010,06,30,14,02,17.30
2010,06,30,14,03,17.30
2010,06,30,14,04,17.30
2010,06,30,14,05,17.30
2010,06,30,14,06,17.30
2010,06,30,14,07,17.30
2010,06,30,14,08,17.30
2010,06,30,14,09,17.20
2010,06,30,14,10,17.20
2010,06,30,14,11,17.30
2010,06,30,14,12,17.40
2010,06,30,14,13,17.40
2010,06,30,14,14,17.50
2010,06,30,14,15,17.70
2010,06,30,14,16,17.90
2010,06,30,14,17,18.10
2010,06,30,14,18,18.20
2010,06,30,14,19,18.20
2010,06,30,14,20,18.20
2010,06,30,14,21,18.10
2010,06,30,14,22,18.00
2010,06,30,14,23,18.10
2010,06,30,14,24,18.10
2010,06,30,14,25,17.90
2010,06,30,14,26,17.90
2010,06,30,14,27,17.90
2010,06,30,14,28,17.90
2010,06,30,14,29,17.90
2010,06,30,14,30,18.10
2010,06,30,14,31,18.20
2010,06,30,14,32,18.20
2010,06,30,14,33,18.20
2010,06,30,14,34,18.30
2010,06,30,14,35,18.50
2010,06,30,14,36,18.60
2010,06,30,14,37,18.60
2010,06,30,14,38,18.60
2010,06,30,14,39,18.60
2010,06,30,14,40,18.60
2010,06,30,14,41,18.60
2010,06,30,14,42,18.60
2010,06,30,14,43,18.70
2010,06,30,14,44,18.80
2010,06,30,14,45,18.90
2010,06,30,14,46,18.90
2010,06,30,14,47,18.90
2010,06,30,14,48,18.90
2010,06,30,14,49,18.90
2010,06,30,14,50,18.90
2010,06,30,14,51,18.90
2010,06,30,14,52,18.90
2010,06,30,14,53,18.80
2010,06,30,14,54,18.70
2010,06,30,14,55,18.70
2010,06,30,14,56,18.60
2010,06,30,14,57,18.50
2010,06,30,14,58,18.50
2010,06,30,14,59,18.30
2010,06,30,15,00,18.30
2010,06,30,15,01,18.20
2010,06,30,15,02,18.10
2010,06,30,15,03,18.00
2010,06,30,15,04,17.90
2010,06,30,15,05,17.90
2010,06,30,15,06,17.90
2010,06,30,15,07,18.00
2010,06,30,15,08,18.10
2010,06,30,15,09,18.20
2010,06,30,15,10,18.30
2010,06,30,15,11,18.40
2010,06,30,15,12,18.50
2010,06,30,15,13,18.50
2010,06,30,15,14,18.60
2010,06,30,15,15,18.70
2010,06,30,15,16,18.60
2010,06,30,15,17,18.50
2010,06,30,15,18,18.50
2010,06,30,15,19,18.40
2010,06,30,15,20,18.30
2010,06,30,15,21,18.20
2010,06,30,15,22,18.00
2010,06,30,15,23,17.90
2010,06,30,15,24,17.80
2010,06,30,15,25,17.70
2010,06,30,15,26,17.60
2010,06,30,15,27,17.60
2010,06,30,15,28,17.50
2010,06,30,15,29,17.60
2010,06,30,15,30,17.60
2010,06,30,15,31,17.60
2010,06,30,15,32,17.60
2010,06,30,15,33,17.60
2010,06,30,15,34,17.60
2010,06,30,15,35,17.70
2010,06,30,15,36,17.70
2010,06,30,15,37,17.70
2010,06,30,15,38,17.80
2010,06,30,15,39,17.80
2010,06,30,15,40,17.90
2010,06,30,15,41,17.90
2010,06,30,15,42,17.90
2010,06,30,15,43,17.90
2010,06,30,15,44,18.00
2010,06,30,15,45,18.10
2010,06,30,15,46,18.10
2010,06,30,15,47,18.10
2010,06,30,15,48,18.10
2010,06,30,15,49,18.30
2010,06,30,15,50,18.50
2010,06,30,15,51,18.50
2010,06,30,15,52,18.60
2010,06,30,15,53,18.70
2010,06,30,15,54,18.70
2010,06,30,15,55,18.70
2010,06,30,15,56,18.60
2010,06,30,15,57,18.40
2010,06,30,15,58,18.30
2010,06,30,15,59,18.20
2010,06,30,16,00,18.10
2010,06,30,16,01,18.00
2010,06,30,16,02,17.90
2010,06,30,16,03,17.90
2010,06,30,16,04,17.80
2010,06,30,16,05,17.80
2010,06,30,16,06,17.70
2010,06,30,16,07,17.70
2010,06,30,16,08,17.60
2010,06,30,16,09,17.50
2010,06,30,16,10,17.40
2010,06,30,16,11,17.30
2010,06,30,16,12,17.20
2010,06,30,16,13,17.00
2010,06,30,16,14,16.90
2010,06,30,16,15,16.90
2010,06,30,16,16,16.70
2010,06,30,16,17,16.60
2010,06,30,16,18,16.60
2010,06,30,16,19,16.60
2010,06,30,16,20,16.40
2010,06,30,16,21,16.40
2010,06,30,16,22,16.30
2010,06,30,16,23,16.30
2010,06,30,16,24,16.20
2010,06,30,16,25,16.20
2010,06,30,16,26,16.20
2010,06,30,16,27,16.10
2010,06,30,16,28,16.10
2010,06,30,16,29,16.10
2010,06,30,16,30,16.10
2010,06,30,16,31,16.10
2010,06,30,16,32,16.10
2010,06,30,16,33,16.10
2010,06,30,16,34,16.10
2010,06,30,16,35,16.10
2010,06,30,16,36,16.10
2010,06,30,16,37,16.10
2010,06,30,16,38,16.10
2010,06,30,16,39,16.10
2010,06,30,16,40,16.10
2010,06,30,16,41,16.10
2010,06,30,16,42,16.10
2010,06,30,16,43,16.10
2010,06,30,16,44,16.10
2010,06,30,16,45,16.10
2010,06,30,16,46,16.20
2010,06,30,16,47,16.20
2010,06,30,16,48,16.20
2010,06,30,16,49,16.30
2010,06,30,16,50,16.30
2010,06,30,16,51,16.30
2010,06,30,16,52,16.30
2010,06,30,16,53,16.30
2010,06,30,16,54,16.30
2010,06,30,16,55,16.20
2010,06,30,16,56,16.20
2010,06,30,16,57,16.20
2010,06,30,16,58,16.20
2010,06,30,16,59,16.20
2010,06,30,17,00,16.20
2010,06,30,17,01,16.20
2010,06,30,17,02,16.20
2010,06,30,17,03,16.20
2010,06,30,17,04,16.20
2010,06,30,17,05,16.30
2010,06,30,17,06,16.30
2010,06,30,17,07,16.30
2010,06,30,17,08,16.30
2010,06,30,17,09,16.30
2010,06,30,17,10,16.30
2010,06,30,17,11,16.30
2010,06,30,17,12,16.30
2010,06,30,17,13,16.30
2010,06,30,17,14,16.30
2010,06,30,17,15,16.30
2010,06,30,17,16,16.30
2010,06,30,17,17,16.30
2010,06,30,17,18,16.30
2010,06,30,17,19,16.40
2010,06,30,17,20,16.40
2010,06,30,17,21,16.40
2010,06,30,17,22,16.50
2010,06,30,17,23,16.60
2010,06,30,17,24,16.60
2010,06,30,17,25,16.70
2010,06,30,17,26,16.70
2010,06,30,17,27,16.70
2010,06,30,17,28,16.70
2010,06,30,17,29,16.60
2010,06,30,17,30,16.60
2010,06,30,17,31,16.60